Weather History for Jordan, MT

Change the Weather History Date:

Thursday, December 20, 2012

  Actual Average Record
Temperature  
Mean Temperature 22 °F 18 °F  
Max Temperature 43 °F 30 °F 62 °F (1941)
Min Temperature 1 °F 5 °F -31 °F (1949)
Degree Days  
Heating Degree Days 43 47  
Month to date heating degree days 723 901  
Since 1 July heating degree days 2493 2919  
Cooling Degree Days 0 0  
Month to date cooling degree days 0 0  
Year to date cooling degree days 728 421  
Moisture  
Dew Point 9 °F    
Average Humidity 64    
Maximum Humidity 95    
Minimum Humidity 33    
Precipitation  
Precipitation 0.00 in 0.01 in 0.20 in (1989)
Month to date precipitation 0.13 0.16  
Year to date precipitation 7.82 12.54  
Snow  
Snow 0.00 in - - ()
Month to date snowfall 0.0  
Since 1 July snowfall 0.0  
Snow Depth 0.00 in    
Sea Level Pressure  
Sea Level Pressure 30.07 in    
Wind  
Wind Speed 3 mph (SW)    
Max Wind Speed 16 mph    
Max Gust Speed 18 mph    
T = Trace of Precipitation, MM = Missing Value Source: NWS Daily Summary

Daily Weather History Graph

Daily Weather History Graph

Search for Another Location

Airport:

Trip Planner

Search our weather history database for the weather conditions in past years. The results will help you decide how hot, cold, wet, or windy it might be!

Date:

Astronomy

Dec. 20, 2012 Rise Set
Actual Time 7:51 AM MST 4:19 PM MST
Civil Twilight 7:15 AM MST 4:55 PM MST
Nautical Twilight 6:36 AM MST 5:34 PM MST
Astronomical Twilight 5:59 AM MST 6:11 PM MST
Moon 11:58 AM MST (12/20) 12:19 AM MST (12/20)
Length of Visible Light 9h 39m
Length of Day
8h 27m
First Quarter, 56% of the Moon is Illuminated
Dec 20
First Quarter
Dec 28
Full
Jan 4
Last Quarter
Jan 11
New
Jan 18
First Quarter

Hourly Weather History & Observations

Time (MST) Temp. Windchill Dew Point Humidity Pressure Visibility Wind Dir Wind Speed Gust Speed Precip Events Conditions
12:48 AM 1.9 °F - -0.9 °F 88% 30.13 in - Calm Calm - N/A   Unknown
1:48 AM 1.9 °F - -2.0 °F 83% 30.11 in - Calm Calm - N/A   Unknown
2:48 AM 3.0 °F - -0.9 °F 84% 30.10 in - Calm Calm - N/A   Unknown
3:48 AM 1.9 °F - -2.9 °F 80% 30.11 in - Calm Calm - N/A   Unknown
4:48 AM 5.0 °F - -0.0 °F 80% 30.11 in - Calm Calm - N/A   Unknown
5:48 AM 3.0 °F - -2.0 °F 80% 30.11 in - Calm Calm - N/A   Unknown
6:48 AM 3.9 °F - -0.9 °F 80% 30.13 in - Calm Calm - N/A   Unknown
7:48 AM 3.9 °F - -0.9 °F 80% 30.15 in - Calm Calm - N/A   Unknown
8:48 AM 10.9 °F - 3.9 °F 73% 30.14 in - Calm Calm - N/A   Unknown
9:48 AM 25.0 °F - 18.0 °F 75% 30.13 in - Calm Calm - N/A   Unknown
10:48 AM 35.1 °F 27.9 °F 15.1 °F 44% 30.11 in - WSW 9.2 mph - N/A   Unknown
11:48 AM 37.9 °F 29.6 °F 15.1 °F 39% 30.09 in - WSW 13.8 mph - N/A   Unknown
12:48 PM 42.1 °F 34.9 °F 16.0 °F 35% 30.06 in - WSW 13.8 mph - N/A   Unknown
1:48 PM 43.0 °F 36.4 °F 15.1 °F 32% 30.04 in - SSW 12.7 mph - N/A   Unknown
2:48 PM 43.0 °F 37.7 °F 15.1 °F 32% 30.03 in - SW 9.2 mph - N/A   Unknown
3:48 PM 37.9 °F - 14.0 °F 38% 30.04 in - Calm Calm - N/A   Unknown
4:48 PM 30.0 °F 26.5 °F 15.1 °F 54% 30.05 in - ESE 3.5 mph - N/A   Unknown
5:48 PM 27.0 °F 23.0 °F 14.0 °F 58% 30.04 in - East 3.5 mph - N/A   Unknown
6:48 PM 25.0 °F - 14.0 °F 63% 30.05 in - Calm Calm - N/A   Unknown
7:48 PM 21.0 °F - 12.9 °F 71% 30.04 in - Calm Calm - N/A   Unknown
8:48 PM 21.9 °F - 12.9 °F 68% 30.02 in - Calm Calm - N/A   Unknown
9:48 PM 25.0 °F - 14.0 °F 63% 30.00 in - Calm Calm - N/A   Unknown
10:48 PM 27.0 °F 20.5 °F 14.0 °F 58% 29.99 in - NW 5.8 mph - N/A   Unknown
11:48 PM 23.0 °F - 14.0 °F 68% 30.00 in - Calm Calm - N/A   Unknown